Showing default

COSMOS 2435 (GLONASS), 32394

Orbit data source: Space-Track

COSMOS 2435 (GLONASS), 32394 is a Commonwealth of Independent States-origin payload satellite in MEO that was launched on Tue, 25 Dec 2007 UTC via a PROTON-M/DM-2 launch vehicle from the Tyuratam Missile And Space Complex (TTMTR). Payload-class satellites include a variety of spacecraft equipped with specific instruments for various scientific and technological missions. These include communications satellites like Starlink; space stations such as the ISS; scientific satellites like the Hubble; Earth observation satellites from companies like Planet Labs, Umbra, and HawkEye 360; GPS; miniature CubeSats for education and research; and military/defense satellites.

Loading next visibility...
Identifier
32394, 2007-065B
Orbit
MEO
Country
Flag of CISCIS
Related business
Manufacturer
Resehetnev ISS
Mission
Non-operational Defense Navigation
Bus & Motor
URAGAN, Unknown motor
Mass
1,450 kg wet, ~1,200 kg dry
Launch date (UTC)
2007-12-25 (18 years ago)
Launch vehicle
PROTON-M/DM-2
Launch site
Tyuratam Missile And Space Complex (TTMTR)
Object type
Payload
Rocket body
Debris
Shape & HBR
Cyl + 1 Ant + 2 Pan, 3.9 m
Radar Cross Section
8.467 m², Large (>1 m²)

Expand to show TLE details & history
Last TLE update: 2 days ago

TLE from 2 days ago
0 COSMOS 2435 (GLONASS)
1 32394U 07065B   26171.14619619  .00000062  00000-0  00000+0 0  9990
2 32394  64.3222 191.8109 0025171 357.0661   2.9624  2.13115336143809
Epoch: 2026-06-20T03:30Z
TLE epoch observation values (Epoch: 2026-06-20T03:30:31.350Z)
Latitude
-0.00007°
Longitude
-129.18202°
Altitude
19,065.253 km
Speed
3.963 km/s
True Right ascension
12h 47m 15s
True Declination
0° 00' 00"
Sunlit
Object was in daylight at epoch
Visualization orbit readout
Latitude
Unknown
Longitude
Unknown
Altitude
Unknown
Speed
Unknown
Apparent Right ascension
Unknown
Apparent Declination
Unknown
Sunlit
N/A
Visualization observer readout
Local Sidereal Time
00:39:44
Azimuth
Unknown
Elevation
Unknown
Doppler factor
Unknown
Orbital elements
Apogee altitude
19,192.665 km
Perigee altitude
19,064.259 km
Semi-major axis
25,506.599 km
Eccentricity
0.00252
Inclination
64.3222°
RAAN
191.8109°
Arg. of periapsis
357.0661°
True anomaly
2.97735°
Mean anomaly
2.9624°
Eccentric anomaly
2.96987°
Mean motion
0.5328 °/min
Orbital period
675.68 mins
BSTAR
0
Loading maneuver chart data...
Computing Atmospheric mass density...
Loading historical data...
Loading historical data...
Loading historical data...
Loading historical data...
Loading historical data...
Loading historical data...
Loading historical data...

Documentation

Showing up to 5 results
|